Time,TemperatureF,DewpointF,PressureIn,WindDirection,WindDirectionDegrees,WindSpeedMPH,WindSpeedGustMPH,Humidity,HourlyPrecipIn,Conditions,Clouds,dailyrainin,SoftwareType,DateUTC
2014-10-21 02:30:00,46.4,39.9,30.03,NW,316,0.0,0.0,78,0.00,,,0.00,Wunderground v.1.15,2014-10-21 07:30:00,
2014-10-21 02:35:00,46.4,39.9,30.03,NW,316,0.0,0.0,78,0.00,,,0.00,Wunderground v.1.15,2014-10-21 07:35:00,
2014-10-21 02:41:00,46.4,39.9,30.03,NW,316,0.0,0.0,78,0.00,,,0.00,Wunderground v.1.15,2014-10-21 07:41:00,
2014-10-21 02:47:00,46.2,39.7,30.03,NW,316,0.0,0.0,78,0.00,,,0.00,Wunderground v.1.15,2014-10-21 07:47:00,
2014-10-21 02:53:00,46.2,39.7,30.03,NW,316,0.0,0.0,78,0.00,,,0.00,Wunderground v.1.15,2014-10-21 07:53:00,
2014-10-21 02:58:00,46.2,39.7,30.03,NW,316,0.0,0.0,78,0.00,,,0.00,Wunderground v.1.15,2014-10-21 07:58:00,
2014-10-21 03:03:00,46.2,39.7,30.03,NW,316,0.0,0.0,78,0.00,,,0.00,Wunderground v.1.15,2014-10-21 08:03:00,
2014-10-21 03:09:00,46.1,39.6,30.03,NW,316,0.0,0.0,78,0.00,,,0.00,Wunderground v.1.15,2014-10-21 08:09:00,
2014-10-21 03:14:00,46.1,39.6,30.03,NW,316,0.0,0.0,78,0.00,,,0.00,Wunderground v.1.15,2014-10-21 08:14:00,
2014-10-21 03:20:00,46.0,39.5,30.03,NW,316,0.0,0.0,78,0.00,,,0.00,Wunderground v.1.15,2014-10-21 08:20:00,
2014-10-21 03:25:00,46.0,39.9,30.03,NW,316,0.0,0.0,79,0.00,,,0.00,Wunderground v.1.15,2014-10-21 08:25:00,
2014-10-21 03:31:00,45.8,39.7,30.03,NW,316,0.0,0.0,79,0.00,,,0.00,Wunderground v.1.15,2014-10-21 08:31:00,
2014-10-21 03:36:00,45.7,39.6,30.03,NW,316,0.0,0.0,79,0.00,,,0.00,Wunderground v.1.15,2014-10-21 08:36:00,
2014-10-21 03:42:00,45.7,39.6,30.03,NW,316,0.0,0.0,79,0.00,,,0.00,Wunderground v.1.15,2014-10-21 08:42:00,
2014-10-21 03:47:00,45.5,39.4,30.03,NW,316,0.0,0.0,79,0.00,,,0.00,Wunderground v.1.15,2014-10-21 08:47:00,
2014-10-21 03:53:00,45.4,39.3,30.03,NW,316,0.0,0.0,79,0.00,,,0.00,Wunderground v.1.15,2014-10-21 08:53:00,
2014-10-21 03:58:00,45.4,39.3,30.05,NW,316,0.0,0.0,79,0.00,,,0.00,Wunderground v.1.15,2014-10-21 08:58:00,
2014-10-21 04:04:00,45.4,39.6,30.05,NW,316,0.0,0.0,80,0.00,,,0.00,Wunderground v.1.15,2014-10-21 09:04:00,
2014-10-21 04:10:00,45.2,39.7,30.05,NW,316,0.0,0.0,81,0.00,,,0.00,Wunderground v.1.15,2014-10-21 09:10:00,
2014-10-21 04:15:00,45.4,39.9,30.05,NW,316,0.0,0.0,81,0.00,,,0.00,Wunderground v.1.15,2014-10-21 09:15:00,
2014-10-21 04:21:00,45.4,39.9,30.05,NW,316,0.0,0.0,81,0.00,,,0.00,Wunderground v.1.15,2014-10-21 09:21:00,
2014-10-21 04:26:00,45.4,39.9,30.05,NW,316,0.0,0.0,81,0.00,,,0.00,Wunderground v.1.15,2014-10-21 09:26:00,
2014-10-21 04:31:00,45.4,40.2,30.05,NW,316,0.0,0.0,82,0.00,,,0.00,Wunderground v.1.15,2014-10-21 09:31:00,
2014-10-21 04:37:00,45.5,40.3,30.05,NW,316,0.0,0.0,82,0.00,,,0.00,Wunderground v.1.15,2014-10-21 09:37:00,
2014-10-21 04:42:00,45.5,40.3,30.06,NW,316,0.0,0.0,82,0.00,,,0.00,Wunderground v.1.15,2014-10-21 09:42:00,
2014-10-21 04:48:00,45.7,40.5,30.06,WNW,289,0.0,2.0,82,0.00,,,0.00,Wunderground v.1.15,2014-10-21 09:48:00,
2014-10-21 04:53:00,45.7,40.5,30.06,WNW,289,0.0,0.0,82,0.00,,,0.00,Wunderground v.1.15,2014-10-21 09:53:00,
2014-10-21 04:59:00,45.8,40.6,30.06,WNW,289,0.0,0.0,82,0.00,,,0.00,Wunderground v.1.15,2014-10-21 09:59:00,
2014-10-21 05:04:00,46.0,40.8,30.06,WNW,289,0.0,0.0,82,0.00,,,0.00,Wunderground v.1.15,2014-10-21 10:04:00,
2014-10-21 05:09:00,46.0,40.8,30.06,NW,318,0.0,0.0,82,0.00,,,0.00,Wunderground v.1.15,2014-10-21 10:09:00,
2014-10-21 05:15:00,46.1,40.6,30.07,NW,318,0.0,0.0,81,0.00,,,0.00,Wunderground v.1.15,2014-10-21 10:15:00,
2014-10-21 05:20:00,46.1,40.6,30.07,NW,318,0.0,0.0,81,0.00,,,0.00,Wunderground v.1.15,2014-10-21 10:20:00,
2014-10-21 05:26:00,46.1,40.6,30.07,NW,318,0.0,0.0,81,0.00,,,0.00,Wunderground v.1.15,2014-10-21 10:26:00,
2014-10-21 05:31:00,46.2,40.7,30.07,NW,318,0.0,0.0,81,0.00,,,0.00,Wunderground v.1.15,2014-10-21 10:31:00,
2014-10-21 05:37:00,46.1,40.3,30.07,North,359,0.0,1.0,80,0.00,,,0.00,Wunderground v.1.15,2014-10-21 10:37:00,
2014-10-21 05:42:00,46.1,40.3,30.08,North,359,0.0,0.0,80,0.00,,,0.00,Wunderground v.1.15,2014-10-21 10:42:00,
2014-10-21 05:48:00,46.1,39.9,30.08,North,359,0.0,0.0,79,0.00,,,0.00,Wunderground v.1.15,2014-10-21 10:48:00,
2014-10-21 05:53:00,46.0,39.9,30.08,North,359,0.0,0.0,79,0.00,,,0.00,Wunderground v.1.15,2014-10-21 10:53:00,
2014-10-21 05:59:00,45.8,39.7,30.10,North,357,0.0,0.0,79,0.00,,,0.00,Wunderground v.1.15,2014-10-21 10:59:00,
2014-10-21 06:04:00,45.7,39.6,30.10,North,357,0.0,3.0,79,0.00,,,0.00,Wunderground v.1.15,2014-10-21 11:04:00,
2014-10-21 06:10:00,45.5,39.4,30.10,WNW,287,0.0,0.0,79,0.00,,,0.00,Wunderground v.1.15,2014-10-21 11:10:00,
2014-10-21 06:15:00,45.4,39.3,30.10,WNW,289,0.0,0.0,79,0.00,,,0.00,Wunderground v.1.15,2014-10-21 11:15:00,
2014-10-21 06:21:00,45.2,39.1,30.10,WNW,299,0.0,0.0,79,0.00,,,0.00,Wunderground v.1.15,2014-10-21 11:21:00,
2014-10-21 06:26:00,45.1,39.0,30.10,WNW,299,0.0,0.0,79,0.00,,,0.00,Wunderground v.1.15,2014-10-21 11:26:00,
2014-10-21 06:32:00,45.1,39.0,30.11,WNW,299,0.0,0.0,79,0.00,,,0.00,Wunderground v.1.15,2014-10-21 11:32:00,
2014-10-21 06:38:00,44.9,38.8,30.11,WNW,299,0.0,0.0,79,0.00,,,0.00,Wunderground v.1.15,2014-10-21 11:38:00,
2014-10-21 06:43:00,44.8,38.7,30.12,WNW,299,0.0,0.0,79,0.00,,,0.00,Wunderground v.1.15,2014-10-21 11:43:00,
2014-10-21 06:49:00,44.6,38.5,30.12,WNW,299,0.0,0.0,79,0.00,,,0.00,Wunderground v.1.15,2014-10-21 11:49:00,
2014-10-21 06:54:00,44.5,38.1,30.12,WNW,299,0.0,0.0,78,0.00,,,0.00,Wunderground v.1.15,2014-10-21 11:54:00,
2014-10-21 06:59:00,44.3,37.9,30.12,WNW,299,0.0,0.0,78,0.00,,,0.00,Wunderground v.1.15,2014-10-21 11:59:00,
2014-10-21 07:05:00,44.2,37.8,30.12,WNW,299,0.0,0.0,78,0.00,,,0.00,Wunderground v.1.15,2014-10-21 12:05:00,
2014-10-21 07:11:00,44.1,37.7,30.12,WNW,299,0.0,0.0,78,0.00,,,0.00,Wunderground v.1.15,2014-10-21 12:11:00,
2014-10-21 07:17:00,43.8,37.7,30.14,WNW,299,0.0,0.0,79,0.00,,,0.00,Wunderground v.1.15,2014-10-21 12:17:00,